[[{"header":{"parameterUnit":"m.s-1","parameterCategory":1,"la1":30.2991,"la2":30.254,"lo1":-89.0895,"lo2":-89.0444,"dy":0.0017,"dx":0.0017,"nx":28,"ny":28,"refTime":"2025-12-17T03:00:00:Z","depth":0,"parameterNumber":2,"parameterNumberName":"U-component_of_WINDS"},"data":[0,0,0,0,0,0,0,0,0,0,0,0,0,0,0,0,0,0,0,0,0,0,0,0,0,0,0,0,0,0,0,0,0,0,0,0,0,0,0,0,0,0,0,0,0,0,0,0,0,0,0,0,0,0,0,0,0,0,-1.7879,-1.7878,0,-1.7776,-1.7775,-1.7774,-1.7671,-1.767,-1.7669,-1.7667,-1.7564,-1.7562,-1.7561,0,0,0,0,0,0,0,0,0,0,0,0,0,-1.7989,-1.7988,-1.7879,-1.7878,-1.7876,-1.7777,-1.7775,-1.7774,-1.7672,-1.767,-1.7668,-1.7667,-1.7564,-1.7562,-1.7561,0,0,0,0,0,0,0,0,0,0,0,0,0,-1.792,-1.7987,-1.7879,-1.7813,-1.7806,-1.7777,-1.7775,-1.7773,-1.7672,-1.767,-1.7668,-1.7666,-1.7565,-1.7562,-1.756,-1.7588,0,0,-1.7554,-1.7553,0,0,0,0,0,0,0,0,-1.7924,-1.7916,-1.7824,-1.7818,-1.781,-1.7734,-1.7776,-1.7711,-1.7672,-1.7723,-1.7667,-1.7665,-1.7622,-1.7615,-1.76,-1.7583,-1.7578,-1.7553,-1.7552,-1.7551,-1.755,0,0,0,0,0,0,0,-1.7929,-1.792,-1.7838,-1.7823,-1.7814,-1.779,-1.7778,-1.7763,-1.7685,-1.7718,-1.7711,-1.77,-1.7618,-1.7603,-1.7597,-1.7577,-1.7553,-1.7551,-1.755,-1.7549,-1.758,-1.7582,0,0,0,0,0,0,-1.7943,-1.7924,-1.7842,-1.7835,-1.7863,-1.779,-1.7776,-1.7761,-1.7685,-1.7672,-1.7702,-1.7696,-1.7608,-1.76,-1.7593,-1.7622,-1.7551,-1.7549,-1.7548,-1.7578,-1.758,-1.7583,0,0,0,0,0,0,-1.7946,-1.7937,-1.7846,-1.7878,-1.7864,-1.779,-1.7774,-1.776,-1.7745,-1.7673,-1.7659,-1.77,-1.7606,-1.7596,-1.759,-1.7617,-1.7548,-1.7546,-1.7575,-1.7578,-1.7581,-1.7678,0,0,0,0,0,0,-1.795,-1.7939,-1.7947,-1.7879,-1.7863,-1.7844,-1.7775,-1.7759,-1.7741,-1.7732,-1.7668,-1.7655,-1.7603,-1.7594,-1.7588,-1.7612,-1.7544,-1.7572,-1.7577,-1.758,-1.7673,-1.7685,-1.7695,0,0,0,0,0,-1.7954,-1.7978,-1.7948,-1.7939,-1.7872,-1.7846,-1.7837,-1.7776,-1.7743,-1.7752,-1.7707,-1.7657,-1.7615,-1.7595,-1.7587,-1.7611,-1.757,-1.7575,-1.758,-1.7668,-1.7682,-1.7695,0,0,0,0,0,0,-1.8051,-1.7968,-1.7934,-1.7936,-1.7899,-1.7828,-1.7837,-1.7793,-1.7764,-1.7757,-1.7684,-1.767,-1.7673,-1.7641,-1.762,-1.7635,-1.7586,-1.759,-1.7655,-1.7669,-1.768,-1.7687,-1.7542,0,0,0,0,0,-1.8073,-1.8058,-1.7986,-1.7996,-1.7979,-1.7912,-1.7898,-1.7855,-1.7813,-1.7797,-1.775,-1.7713,-1.7691,-1.7678,-1.7654,-1.7668,-1.7654,-1.7681,-1.7692,-1.7702,-1.7705,-1.7713,-1.7724,-1.7598,-1.7598,-1.7598,0,0,-1.8118,-1.8071,-1.8065,-1.8014,-1.798,-1.7967,-1.7899,-1.7887,-1.7877,-1.7795,-1.7786,-1.7752,-1.7705,-1.771,-1.771,-1.7683,-1.7738,-1.7708,-1.7716,-1.7714,-1.7719,-1.7731,-1.7742,-1.7602,-1.7601,-1.7601,0,0,-1.8193,-1.8155,-1.816,-1.8128,-1.8077,-1.8033,-1.8035,-1.7971,-1.7945,-1.7935,-1.7874,-1.7862,-1.7826,-1.7795,-1.7775,-1.7843,-1.7797,-1.7838,-1.7895,-1.7903,-1.7913,-1.7922,-1.7947,-1.7957,-1.7842,-1.7842,-1.7842,0,-1.8255,-1.8232,-1.8168,-1.816,-1.8141,-1.8067,-1.8072,-1.8044,-1.7988,-1.7977,-1.7948,-1.7903,-1.7866,-1.7864,-1.7881,-1.7867,-1.7867,-1.7844,-1.7917,-1.7925,-1.7932,-1.7955,-1.7965,-1.7847,-1.7847,-1.7846,-1.7845,0,-1.8311,-1.8297,-1.8306,-1.8255,-1.8237,-1.8236,-1.8173,-1.8162,-1.8122,-1.8082,-1.8075,-1.8028,-1.7995,-1.7991,-1.7951,-1.7984,-1.797,-1.793,-1.788,-1.795,-1.7971,-1.7979,-1.7855,-1.7853,-1.7851,-1.785,0,0,-1.8441,-1.8357,-1.8362,-1.8339,-1.828,-1.8268,-1.8265,-1.8232,-1.8225,-1.819,-1.8187,-1.816,-1.8124,-1.8101,-1.8058,-1.8065,-1.8124,-1.8025,-1.8022,-1.8045,-1.8159,-1.8189,-1.82,-1.8093,-1.8095,-1.8096,-1.8163,0,-1.8506,-1.8495,-1.8439,-1.8445,-1.8432,-1.8364,-1.8361,-1.8326,-1.8289,-1.8273,-1.8233,-1.8215,-1.8168,-1.8154,-1.8158,-1.8116,-1.8145,-1.811,-1.809,-1.809,-1.8104,-1.821,-1.8241,-1.8306,-1.8171,-1.8172,-1.8173,0,-1.8579,-1.855,-1.8555,-1.8499,-1.8491,-1.849,-1.8457,-1.8442,-1.8402,-1.8375,-1.8352,-1.8303,-1.8298,-1.8252,-1.8245,-1.8222,-1.8211,-1.819,-1.8191,-1.8186,-1.8135,-1.8209,-1.8326,-1.8336,-1.8185,-1.8184,-1.8183,0,-1.8675,-1.8637,-1.8636,-1.8618,-1.8552,-1.8553,-1.8526,-1.8483,-1.8468,-1.8439,-1.8429,-1.8401,-1.8386,-1.8366,-1.8312,-1.8283,-1.8312,-1.8261,-1.829,-1.8292,-1.8298,-1.8299,-1.8415,-1.8292,-1.8292,-1.8292,-1.8292,0,-1.8752,-1.8758,-1.8678,-1.8677,-1.8683,-1.862,-1.8627,-1.8593,-1.8557,-1.8549,-1.8489,-1.8483,-1.8413,-1.84,-1.8359,-1.836,-1.8354,-1.8333,-1.8321,-1.8338,-1.8341,-1.8329,-1.8323,-1.8295,-1.8294,-1.8293,-1.8293,0,-1.8859,-1.8805,-1.88,-1.8738,-1.8723,-1.873,-1.8678,-1.8676,-1.8637,-1.8628,-1.8623,-1.8561,-1.8543,-1.8489,-1.8457,-1.8429,-1.8443,-1.8422,-1.8457,-1.8449,-1.8482,-1.848,-1.8595,-1.8608,-1.8478,-1.8479,-1.848,0,-1.8912,-1.8915,-1.8855,-1.8846,-1.8821,-1.8807,-1.8792,-1.8731,-1.8718,-1.8674,-1.8677,-1.8655,-1.8633,-1.8608,-1.8561,-1.8538,-1.8515,-1.8558,-1.8511,-1.8529,-1.8517,-1.8517,-1.8518,-1.8567,-1.8569,-1.8571,-1.8572,0,-1.9012,-1.8986,-1.8966,-1.8938,-1.8922,-1.8897,-1.8868,-1.8864,-1.8797,-1.8785,-1.8766,-1.875,-1.8719,-1.8698,-1.8667,-1.864,-1.8596,-1.8587,-1.8593,-1.8609,-1.863,-1.862,-1.8484,-1.8584,-1.8583,-1.8582,-1.8581,-1.8581,-1.9093,-1.9093,-1.9052,-1.9033,-1.9005,-1.8981,-1.8976,-1.8938,-1.8921,-1.889,-1.8856,-1.8842,-1.8804,-1.8758,-1.8735,-1.8724,-1.87,-1.8708,-1.871,-1.8713,-1.8721,-1.8632,-1.8718,-1.8718,-1.8717,-1.8717,-1.8717,0,-1.919,-1.916,-1.9144,-1.9106,-1.9092,-1.9052,-1.902,-1.901,-1.8999,-1.8967,-1.8948,-1.8928,-1.8908,-1.8861,-1.8838,-1.8838,-1.8817,-1.8834,-1.8833,-1.8828,-1.8744,-1.8741,-1.8851,-1.8851,-1.8851,-1.8851,-1.8851,-1.8851,-1.9238,-1.9238,-1.9208,-1.9194,-1.9165,-1.915,-1.9136,-1.9114,-1.9088,-1.9069,-1.9052,-1.9022,-1.8985,-1.8959,-1.894,-1.8926,-1.8921,-1.8944,-1.8925,-1.8847,-1.8834,-1.8821,-1.8819,-1.8944,-1.8944,-1.901,-1.9011,-1.9011]},{"header":{"parameterUnit":"m.s-1","parameterCategory":1,"la1":30.2991,"la2":30.254,"lo1":-89.0895,"lo2":-89.0444,"dy":0.0017,"dx":0.0017,"nx":28,"ny":28,"refTime":"2025-12-17T03:00:00:Z","depth":0,"parameterNumber":3,"parameterNumberName":"V-component_of_WINDS"},"data":[0,0,0,0,0,0,0,0,0,0,0,0,0,0,0,0,0,0,0,0,0,0,0,0,0,0,0,0,0,0,0,0,0,0,0,0,0,0,0,0,0,0,0,0,0,0,0,0,0,0,0,0,0,0,0,0,0,0,1.074,1.0738,0,1.0595,1.0594,1.0592,1.0543,1.0543,1.0544,1.0545,1.0391,1.0386,1.0382,0,0,0,0,0,0,0,0,0,0,0,0,0,1.0969,1.0965,1.074,1.0738,1.0736,1.0595,1.0593,1.0591,1.0543,1.0543,1.0544,1.0545,1.0392,1.0387,1.0381,0,0,0,0,0,0,0,0,0,0,0,0,0,1.0852,1.0964,1.074,1.0695,1.069,1.0596,1.0593,1.0591,1.0543,1.0543,1.0544,1.0545,1.0394,1.0387,1.038,1.0319,0,0,1.0359,1.0356,0,0,0,0,0,0,0,0,1.0858,1.0843,1.0704,1.0698,1.0692,1.0588,1.0618,1.05,1.0542,1.0598,1.0545,1.0546,1.0455,1.0443,1.0414,1.0312,1.0305,1.0358,1.0354,1.0351,1.0349,0,0,0,0,0,0,0,1.0867,1.0849,1.0682,1.0702,1.0694,1.0681,1.0665,1.0595,1.0523,1.0593,1.059,1.0573,1.0452,1.0421,1.041,1.0303,1.0359,1.0352,1.0348,1.0345,1.0144,1.0143,0,0,0,0,0,0,1.0883,1.0856,1.0687,1.0678,1.0779,1.0676,1.0658,1.062,1.0524,1.051,1.0573,1.0572,1.0432,1.0418,1.0404,1.0327,1.0351,1.0345,1.0341,1.0145,1.0144,1.0143,0,0,0,0,0,0,1.0888,1.0868,1.0693,1.0766,1.0743,1.0671,1.0629,1.0617,1.0586,1.0508,1.0495,1.0554,1.0432,1.0414,1.0341,1.0321,1.0341,1.0335,1.0147,1.0145,1.0143,1.0171,0,0,0,0,0,0,1.0895,1.0871,1.0847,1.0766,1.0739,1.0634,1.0627,1.0614,1.0574,1.0572,1.0487,1.0474,1.0432,1.0352,1.0334,1.0311,1.033,1.0148,1.0146,1.0144,1.0172,1.017,1.0169,0,0,0,0,0,1.0903,1.0859,1.0847,1.0826,1.0709,1.0632,1.0617,1.0571,1.0573,1.0549,1.0499,1.0477,1.0326,1.0345,1.0325,1.0299,1.0149,1.0146,1.0144,1.0172,1.0171,1.017,0,0,0,0,0,0,1.0938,1.0848,1.0832,1.0761,1.0705,1.0624,1.0592,1.057,1.0511,1.051,1.0454,1.0435,1.0366,1.0325,1.0348,1.0235,1.0236,1.023,1.0265,1.0263,1.0262,1.0273,1.0324,0,0,0,0,0,1.0938,1.0885,1.0808,1.0753,1.0726,1.0664,1.0629,1.0599,1.0537,1.0512,1.0457,1.0397,1.0337,1.0297,1.0237,1.0166,1.0146,1.0138,1.0137,1.0137,1.0131,1.0091,1.0087,1.0134,1.0134,1.0134,0,0,1.0935,1.088,1.0849,1.0758,1.0711,1.0657,1.0644,1.0586,1.0545,1.0503,1.0431,1.0389,1.0318,1.0247,1.0212,1.021,1.0114,1.0134,1.0134,1.0128,1.0088,1.0084,1.008,1.0132,1.0133,1.0133,0,0,1.0904,1.0857,1.0806,1.076,1.069,1.065,1.0638,1.056,1.0531,1.0459,1.0427,1.0376,1.0272,1.0223,1.0185,1.0138,1.0115,1.0119,1.0113,1.0075,1.0071,1.0068,1.0051,1.0045,1.0114,1.0114,1.0114,0,1.091,1.0828,1.0782,1.0727,1.0688,1.065,1.0598,1.0554,1.0467,1.044,1.044,1.0311,1.026,1.0176,1.0165,1.0135,1.0119,1.0128,1.0076,1.0072,1.0068,1.0051,1.0045,1.0115,1.0115,1.0115,1.0115,0,1.0839,1.0782,1.0749,1.0669,1.0626,1.0572,1.0518,1.0479,1.0453,1.0413,1.034,1.0278,1.0205,1.0183,1.0156,1.0096,1.0097,1.0087,1.0087,1.0065,1.0048,1.0041,1.0117,1.0116,1.0116,1.0116,0,0,1.0823,1.072,1.0709,1.0673,1.0594,1.0548,1.0493,1.0424,1.0392,1.0334,1.0285,1.0199,1.019,1.0147,1.0114,1.008,1.0047,1.0074,1.0071,1.0071,0.9977,0.9985,0.9978,1.0032,1.003,1.0029,0.9983,0,1.0781,1.0683,1.0641,1.0561,1.0509,1.0473,1.0425,1.037,1.0331,1.028,1.0235,1.0176,1.0168,1.0142,1.0107,1.0058,1.0027,1.0061,0.9985,0.9983,1.0004,0.9969,0.9977,0.9936,0.9976,0.9975,0.9974,0,1.0719,1.0663,1.0579,1.0508,1.0484,1.0442,1.0376,1.0327,1.0265,1.0238,1.0192,1.0161,1.01,1.0105,1.002,1.0045,1.0011,0.9982,0.998,0.997,0.9977,0.9958,0.9922,0.9916,0.9963,0.9964,0.9965,0,1.0717,1.062,1.0558,1.0527,1.0443,1.0414,1.0377,1.0315,1.0277,1.0219,1.0193,1.0128,1.0092,1.0041,0.9994,1.0001,0.9913,0.9914,0.9889,0.989,0.9871,0.9873,0.9828,0.9851,0.9851,0.9851,0.9851,0,1.0674,1.0624,1.0556,1.0517,1.046,1.0412,1.0356,1.0316,1.0262,1.0214,1.0179,1.0134,1.0074,1.0021,0.9983,0.9919,0.9903,0.9879,0.987,0.9882,0.9885,0.9859,0.986,0.9849,0.985,0.985,0.985,0,1.0661,1.0613,1.0543,1.047,1.045,1.0411,1.0347,1.0308,1.0268,1.0208,1.0191,1.0127,1.0064,1.0012,0.9928,0.9902,0.9835,0.9824,0.9857,0.9852,0.983,0.9833,0.9766,0.9755,0.9786,0.9785,0.9785,0,1.0637,1.0598,1.0521,1.0488,1.0452,1.0398,1.036,1.0311,1.0272,1.0199,1.0169,1.0103,1.0048,0.9948,0.9894,0.983,0.9816,0.9798,0.9806,0.9821,0.9816,0.9819,0.9814,0.9797,0.9797,0.9796,0.9796,0,1.0599,1.0578,1.0525,1.0464,1.042,1.0369,1.0317,1.0291,1.0233,1.0191,1.0127,1.0085,1.0,0.9936,0.9866,0.9826,0.9801,0.9795,0.9785,0.9797,0.9818,0.9807,0.9855,0.9796,0.9796,0.9796,0.9796,0.9796,1.0579,1.0543,1.0485,1.0427,1.0383,1.0336,1.0296,1.0253,1.0199,1.0128,1.0103,1.0037,0.9976,0.988,0.984,0.9787,0.9784,0.9771,0.9767,0.9765,0.9767,0.9828,0.9774,0.9774,0.9774,0.9774,0.9774,0,1.054,1.0501,1.0448,1.0378,1.0333,1.0317,1.0258,1.0221,1.0165,1.0111,1.0059,0.9985,0.9923,0.9864,0.9799,0.9767,0.9754,0.9752,0.9753,0.9744,0.9773,0.9787,0.9763,0.9763,0.9763,0.9763,0.9763,0.9763,1.0514,1.0453,1.0425,1.0342,1.0302,1.024,1.0208,1.0164,1.0121,1.0042,0.9991,0.9954,0.9898,0.9828,0.977,0.9754,0.9731,0.9732,0.9713,0.974,0.9742,0.9744,0.9757,0.9727,0.9727,0.9689,0.9688,0.9688]}]]